• în Republica Moldova
  • Lista ţărilor
  • Pe 7 zile
  • Temperatura apei
  • Hartă satelitară
  • Meteo pe hartă
  • Widget-uri
  • user-avatar
    Intrare

    Meteo pe oră la Kalgoorlie

    Astăzi, 21 Februarie, Marţi

    Timp Temperatura Precipitaţii Vânt Presiune Umiditate
    00:00 +28°C° 0 mm 5 m/s 724 mmHg 39%
    01:00 +27°C° 0 mm 5 m/s 724 mmHg 48%
    02:00 +26°C° 0 mm 4 m/s 724 mmHg 61%
    03:00 +25°C° 0,6 mm 4 m/s 724 mmHg 65%
    04:00 +25°C° 0,6 mm 5 m/s 724 mmHg 68%
    05:00 +23°C° 0,6 mm 5 m/s 724 mmHg 72%
    06:00 +23°C° 0,3 mm 6 m/s 724 mmHg 68%
    07:00 +23°C° 0,3 mm 7 m/s 725 mmHg 64%
    08:00 +23°C° 0 mm 9 m/s 725 mmHg 58%
    09:00 +23°C° 0 mm 9 m/s 725 mmHg 51%
    10:00 +24°C° 0 mm 10 m/s 725 mmHg 44%
    11:00 +24°C° 0 mm 11 m/s 725 mmHg 37%
    12:00 +26°C° 0 mm 11 m/s 725 mmHg 35%
    13:00 +26°C° 0 mm 11 m/s 725 mmHg 34%
    14:00 +27°C° 0 mm 11 m/s 725 mmHg 32%
    15:00 +26°C° 0 mm 11 m/s 726 mmHg 31%
    16:00 +26°C° 0 mm 10 m/s 726 mmHg 31%
    17:00 +24°C° 0 mm 10 m/s 726 mmHg 30%
    18:00 +23°C° 0 mm 8 m/s 727 mmHg 32%
    19:00 +21°C° 0 mm 7 m/s 728 mmHg 34%
    20:00 +20°C° 0 mm 5 m/s 728 mmHg 36%
    21:00 +19°C° 0 mm 5 m/s 729 mmHg 40%
    22:00 +17°C° 0 mm 5 m/s 729 mmHg 42%
    23:00 +16°C° 0 mm 5 m/s 730 mmHg 43%

    Mâine, 22 Februarie, Miercuri

    Timp Temperatura Precipitaţii Vânt Presiune Umiditate
    00:00 +17°C° 0 mm 4 m/s 730 mmHg 46%
    01:00 +15°C° 0 mm 4 m/s 730 mmHg 48%
    02:00 +14°C° 0 mm 3 m/s 730 mmHg 51%
    03:00 +14°C° 0 mm 3 m/s 730 mmHg 53%
    04:00 +13°C° 0 mm 3 m/s 730 mmHg 56%
    05:00 +13°C° 0 mm 3 m/s 731 mmHg 59%
    06:00 +13°C° 0 mm 3 m/s 731 mmHg 57%
    07:00 +14°C° 0 mm 3 m/s 732 mmHg 55%
    08:00 +16°C° 0 mm 3 m/s 732 mmHg 53%
    09:00 +17°C° 0 mm 3 m/s 732 mmHg 48%
    10:00 +19°C° 0 mm 3 m/s 733 mmHg 42%
    11:00 +21°C° 0 mm 2 m/s 733 mmHg 36%
    12:00 +23°C° 0 mm 2 m/s 732 mmHg 33%
    13:00 +24°C° 0 mm 2 m/s 732 mmHg 30%
    14:00 +26°C° 0 mm 2 m/s 731 mmHg 26%
    15:00 +26°C° 0 mm 2 m/s 731 mmHg 26%
    16:00 +27°C° 0 mm 2 m/s 731 mmHg 25%
    17:00 +27°C° 0 mm 2 m/s 731 mmHg 25%
    18:00 +26°C° 0 mm 2 m/s 732 mmHg 28%
    19:00 +24°C° 0 mm 2 m/s 732 mmHg 31%
    20:00 +23°C° 0 mm 2 m/s 733 mmHg 34%
    21:00 +22°C° 0 mm 3 m/s 733 mmHg 37%
    22:00 +21°C° 0 mm 3 m/s 733 mmHg 39%
    23:00 +20°C° 0 mm 3 m/s 733 mmHg 42%

    Poimâine, 23 Februarie, Joi

    Timp Temperatura Precipitaţii Vânt Presiune Umiditate
    00:00 +20°C° 0 mm 3 m/s 733 mmHg 46%
    01:00 +19°C° 0 mm 4 m/s 733 mmHg 50%
    02:00 +18°C° 0 mm 4 m/s 733 mmHg 55%
    03:00 +18°C° 0 mm 4 m/s 733 mmHg 59%
    04:00 +17°C° 0 mm 4 m/s 733 mmHg 63%
    05:00 +15°C° 0 mm 4 m/s 733 mmHg 67%
    06:00 +18°C° 0 mm 4 m/s 734 mmHg 63%
    07:00 +19°C° 0 mm 5 m/s 734 mmHg 58%
    08:00 +20°C° 0 mm 5 m/s 734 mmHg 54%
    09:00 +22°C° 0 mm 5 m/s 734 mmHg 46%
    10:00 +25°C° 0 mm 4 m/s 735 mmHg 38%
    11:00 +27°C° 0 mm 4 m/s 735 mmHg 30%
    12:00 +28°C° 0 mm 4 m/s 734 mmHg 28%
    13:00 +30°C° 0 mm 4 m/s 734 mmHg 25%
    14:00 +31°C° 0 mm 3 m/s 733 mmHg 22%
    15:00 +32°C° 0 mm 4 m/s 733 mmHg 22%
    16:00 +32°C° 0 mm 4 m/s 733 mmHg 21%
    17:00 +32°C° 0 mm 4 m/s 733 mmHg 21%
    18:00 +29°C° 0 mm 4 m/s 733 mmHg 24%
    19:00 +28°C° 0 mm 4 m/s 734 mmHg 28%
    20:00 +26°C° 0 mm 4 m/s 734 mmHg 31%
    21:00 +25°C° 0 mm 4 m/s 734 mmHg 33%
    22:00 +25°C° 0 mm 5 m/s 735 mmHg 36%
    23:00 +23°C° 0 mm 5 m/s 735 mmHg 38%

    24 Februarie, Vineri

    Timp Temperatura Precipitaţii Vânt Presiune Umiditate
    00:00 +22°C° 0 mm 5 m/s 735 mmHg 41%
    01:00 +21°C° 0 mm 5 m/s 735 mmHg 44%
    02:00 +21°C° 0 mm 6 m/s 735 mmHg 46%
    03:00 +20°C° 0 mm 6 m/s 735 mmHg 52%
    04:00 +19°C° 0 mm 6 m/s 735 mmHg 58%
    05:00 +17°C° 0 mm 6 m/s 735 mmHg 64%
    06:00 +19°C° 0 mm 6 m/s 736 mmHg 62%
    07:00 +20°C° 0 mm 7 m/s 736 mmHg 59%
    08:00 +21°C° 0 mm 7 m/s 737 mmHg 57%
    09:00 +23°C° 0 mm 7 m/s 737 mmHg 48%
    10:00 +27°C° 0 mm 7 m/s 737 mmHg 39%
    11:00 +29°C° 0 mm 7 m/s 737 mmHg 29%
    12:00 +30°C° 0 mm 7 m/s 736 mmHg 26%
    13:00 +32°C° 0 mm 6 m/s 735 mmHg 23%
    14:00 +33°C° 0 mm 6 m/s 735 mmHg 20%
    15:00 +33°C° 0 mm 6 m/s 734 mmHg 20%
    16:00 +33°C° 0 mm 6 m/s 734 mmHg 20%
    17:00 +33°C° 0 mm 6 m/s 734 mmHg 20%
    18:00 +30°C° 0 mm 6 m/s 734 mmHg 23%
    19:00 +28°C° 0 mm 5 m/s 735 mmHg 26%
    20:00 +27°C° 0 mm 5 m/s 735 mmHg 29%
    21:00 +26°C° 0 mm 5 m/s 735 mmHg 31%
    22:00 +24°C° 0 mm 6 m/s 735 mmHg 33%
    23:00 +23°C° 0 mm 6 m/s 735 mmHg 35%

    25 Februarie, Sâmbătă

    Timp Temperatura Precipitaţii Vânt Presiune Umiditate
    00:00 +22°C° 0 mm 6 m/s 735 mmHg 44%
    01:00 +21°C° 0 mm 7 m/s 735 mmHg 54%
    02:00 +20°C° 0 mm 7 m/s 734 mmHg 63%
    03:00 +20°C° 0 mm 7 m/s 735 mmHg 66%
    04:00 +19°C° 0 mm 6 m/s 735 mmHg 70%
    05:00 +17°C° 0 mm 6 m/s 735 mmHg 73%
    06:00 +19°C° 0 mm 6 m/s 735 mmHg 68%
    07:00 +20°C° 0 mm 6 m/s 735 mmHg 64%
    08:00 +21°C° 0 mm 6 m/s 736 mmHg 60%
    09:00 +24°C° 0 mm 6 m/s 736 mmHg 50%
    10:00 +27°C° 0 mm 6 m/s 735 mmHg 39%
    11:00 +30°C° 0 mm 6 m/s 735 mmHg 29%
    12:00 +32°C° 0 mm 5 m/s 734 mmHg 26%
    13:00 +33°C° 0 mm 5 m/s 734 mmHg 23%
    14:00 +34°C° 0 mm 4 m/s 733 mmHg 19%
    15:00 +34°C° 0 mm 4 m/s 733 mmHg 19%
    16:00 +34°C° 0 mm 4 m/s 733 mmHg 18%
    17:00 +34°C° 0 mm 4 m/s 733 mmHg 18%
    18:00 +32°C° 0 mm 4 m/s 733 mmHg 21%
    19:00 +29°C° 0 mm 4 m/s 733 mmHg 24%
    20:00 +28°C° 0 mm 4 m/s 733 mmHg 27%
    21:00 +27°C° 0 mm 4 m/s 733 mmHg 29%
    22:00 +26°C° 0 mm 5 m/s 732 mmHg 31%
    23:00 +25°C° 0 mm 5 m/s 732 mmHg 33%

    26 Februarie, Duminică

    Timp Temperatura Precipitaţii Vânt Presiune Umiditate
    00:00 +25°C° 0 mm 5 m/s 732 mmHg 34%
    01:00 +23°C° 0 mm 5 m/s 732 mmHg 34%
    02:00 +22°C° 0 mm 5 m/s 731 mmHg 35%
    03:00 +22°C° 0 mm 5 m/s 731 mmHg 37%
    04:00 +21°C° 0 mm 4 m/s 731 mmHg 39%
    05:00 +20°C° 0 mm 4 m/s 731 mmHg 41%
    06:00 +22°C° 0 mm 5 m/s 731 mmHg 38%
    07:00 +23°C° 0 mm 5 m/s 732 mmHg 35%
    08:00 +26°C° 0 mm 6 m/s 732 mmHg 32%
    09:00 +28°C° 0 mm 6 m/s 732 mmHg 27%
    10:00 +32°C° 0 mm 6 m/s 731 mmHg 23%
    11:00 +34°C° 0 mm 5 m/s 731 mmHg 18%
    12:00 +35°C° 0 mm 4 m/s 730 mmHg 17%
    13:00 +36°C° 0 mm 3 m/s 730 mmHg 15%
    14:00 +37°C° 0 mm 2 m/s 729 mmHg 13%
    15:00 +37°C° 0 mm 2 m/s 729 mmHg 13%
    16:00 +36°C° 0 mm 1 m/s 729 mmHg 13%
    17:00 +34°C° 0 mm 0 m/s 729 mmHg 13%
    18:00 +35°C° 0 mm 1 m/s 729 mmHg 14%
    19:00 +34°C° 0 mm 3 m/s 729 mmHg 15%
    20:00 +32°C° 0 mm 4 m/s 729 mmHg 17%
    21:00 +30°C° 0 mm 4 m/s 729 mmHg 18%
    22:00 +30°C° 0 mm 4 m/s 729 mmHg 18%
    23:00 +29°C° 0 mm 5 m/s 728 mmHg 19%
    Arată mai mult